Regional Weather Roundup
Issued by NWS Northern Indiana

Home | Current Version | Previous Version | Graphics & Text | Print | Product List | Glossary On
Versions: 1 2 3 4 5 6 7 8 9 10 11 12 13 14 15 16 17 18 19 20 21 22 23 24 25 26 27 28 29 30 31 32 33 34 35 36 37 38 39 40 41 42 43 44 45 46 47 48 49 50
927
ASUS43 KIWX 242300
RWRIWX

KIWX WEATHER ROUNDUP
NATIONAL WEATHER SERVICE NORTHERN INDIANA
700 PM EDT TUE MAY 24 2016

NOTE: "FAIR" INDICATES FEW OR NO CLOUDS BELOW 12,000 FEET WITH NO
SIGNIFICANT WEATHER AND/OR OBSTRUCTIONS TO VISIBILITY.

* THESE STATIONS ARE NOT UNDER NWS QUALITY CONTROL. THEY ALSO MAY NOT
  REPORT WEATHER SUCH AS PRECIPITATION OR FOG.

INZ001>027-250000-
NORTHERN INDIANA

CITY           SKY/WX    TMP DP  RH WIND       PRES   REMARKS
GARY*          MOSUNNY   88  57  35 SW14      29.93F
SOUTH BEND     MOSUNNY   83  46  27 S13       29.98S
GOSHEN         MOSUNNY   81  47  30 SW12      29.99S
ANGOLA*        SUNNY     82  52  34 SW7       30.01S
FORT WAYNE     MOSUNNY   82  46  28 SW12      30.02S

$$
INZ028>050-250000-
CENTRAL INDIANA

CITY           SKY/WX    TMP DP  RH WIND       PRES   REMARKS
LAFAYETTE      SUNNY     81  52  36 S9        29.98F
KOKOMO*        MOSUNNY   81  54  39 S12       30.01S
MUNCIE*        SUNNY     83  43  24 W9        30.03F
INDIANAPOLIS   MOSUNNY   80  53  39 SW13      30.01F

$$
MIZ043>046-050>051-056>058-064>065-071>073-077>080-250000-
SOUTHWEST LOWER MICHIGAN

CITY           SKY/WX    TMP DP  RH WIND       PRES   REMARKS
BATTLE CREEK   SUNNY     81  48  31 SW8       30.00R
BENTON HARBOR  SUNNY     83  50  31 W5        29.96S
COLDWATER*     MOSUNNY   80  46  29 SW7       30.00S
HILLSDALE*     SUNNY     82  35  18 W9G16     30.02R
HOLLAND        SUNNY     82  50  32 W9        29.97F
GRAND RAPIDS   MOSUNNY   84  50  30 W15       29.98S
KALAMAZOO      SUNNY     83  48  29 S8        29.98S
STURGIS*       SUNNY     81  48  30 SW9G17    29.99S
THREE RIVERS*  FAIR      84  44  24 SW9       29.99R

$$
OHZ001>008-015>018-024>025-250000-
NORTHWEST OHIO

CITY           SKY/WX    TMP DP  RH WIND       PRES   REMARKS
DEFIANCE       SUNNY     84  43  23 SW7       30.00S
FINDLAY        SUNNY     82  38  20 SW9       30.01R
TOLEDO EXPRESS SUNNY     83  43  24 W13       30.00R
TOLEDO METCALF SUNNY     83  43  24 SW10      30.00S
LIMA           SUNNY     80  42  25 SW7       30.03S

$$
AND FOR LAKE MICHIGAN COASTAL AND OPEN LAKE BUOY OBSERVATIONS

STATION/POSITION TEMP    WIND        PRES    VSBY  WAVE
                 AIR SEA DIR/SP/G                  HT/PER
                 (F)     (DEG/KT/KT) (MB)    (MI)  (FT/S)
CALUMET HARBOR    86                   N/A
MICHIGAN CITY     83     190/ 12/ 15   N/A
BURNS HARBOR      84     210/ 13/ 19 1014.2F
SAINT JOSEPH      84      CALM  /  1 1015.6S
SOUTH LAKE BUOY   58 49  130/ 10/ 10 1013.8          1
4 MI NW BRIDGMAN  72 69   70/  4/  4   N/A           0
MICHIGAN CITY     70 60  230/  6/  8   N/A           1

$$
&&




USA.gov is the U.S. government's official web portal to all federal, state and local government web resources and services.